Location: Newark
(52.3500°N, 175.9667°E)
Time: 16:29:15
(UTC+00:00)

Transit 2A Rocket - All Passes

Search period start: 11 April 2021 00:00
Search period end: 21 April 2021 00:00
Orbit: 594 x 908 km, 66.7° (Epoch: 10 April)

Date Brightness Start Highest point End Pass type
(mag) Time Alt. Az. Time Alt. Az. Time Alt. Az.
11 Apr - 05:32:20 10° S 05:36:30 37° ESE 05:40:31 10° NE daylight
11 Apr - 07:14:47 10° WSW 07:19:00 40° NW 07:23:07 10° NNE daylight
11 Apr - 09:00:05 10° NW 09:02:40 15° NNW 09:05:15 10° NNE visible
11 Apr - 10:44:51 10° NNW 10:47:01 13° N 10:49:11 10° NE visible
11 Apr - 12:27:09 10° NNW 12:30:57 28° NE 12:34:53 10° E visible
11 Apr - 14:09:27 10° NW 14:13:47 63° SW 14:18:22 10° SSE visible
12 Apr - 04:50:34 10° SSE 04:54:05 22° ESE 04:57:30 10° ENE daylight
12 Apr - 06:31:50 10° SW 06:36:17 62° NW 06:40:35 10° NE daylight
12 Apr - 08:16:33 10° WNW 08:19:38 18° NNW 08:22:42 10° NNE visible
12 Apr - 10:01:59 10° NNW 10:03:53 13° N 10:05:49 10° NNE visible
12 Apr - 11:44:39 10° NNW 11:48:03 22° NNE 11:51:31 10° E visible
12 Apr - 13:26:48 10° NW 13:31:12 82° NE 13:35:50 10° SE visible
12 Apr - 15:10:19 10° WNW 15:13:13 17° WSW 15:16:14 10° SSW visible
13 Apr - 04:09:34 10° SE 04:11:46 13° ESE 04:13:56 10° E daylight
13 Apr - 05:49:08 10° SW 05:53:38 84° SE 05:57:59 10° NE daylight
13 Apr - 07:33:06 10° W 07:36:40 24° NNW 07:40:12 10° NNE daylight
13 Apr - 09:18:48 10° NNW 09:20:45 13° N 09:22:44 10° NNE visible
13 Apr - 11:02:08 10° NNW 11:05:03 17° NNE 11:08:01 10° ENE visible
13 Apr - 12:44:14 10° NNW 12:48:32 52° NE 12:53:01 10° ESE visible
13 Apr - 14:27:04 10° WNW 14:30:51 28° WSW 14:34:50 10° S visible
14 Apr - 05:06:43 10° SSW 05:11:05 51° ESE 05:15:17 10° NE daylight
14 Apr - 06:49:48 10° W 06:53:47 32° NW 06:57:42 10° NNE daylight
14 Apr - 08:35:21 10° NW 08:37:39 14° NNW 08:39:56 10° NNE visible
14 Apr - 10:19:33 10° NNW 10:22:00 14° NNE 10:24:28 10° NE visible
14 Apr - 12:01:43 10° NNW 12:05:46 35° NE 12:09:58 10° ESE visible
14 Apr - 13:44:10 10° NW 13:48:24 46° WSW 13:52:52 10° SSE visible
15 Apr - 04:24:39 10° S 04:28:37 31° ESE 04:32:27 10° NE daylight
15 Apr - 06:06:42 10° WSW 06:11:00 46° NW 06:15:12 10° NNE daylight
15 Apr - 07:51:48 10° WNW 07:54:34 16° NNW 07:57:19 10° NNE visible
15 Apr - 09:36:50 10° NNW 09:38:53 13° N 09:40:57 10° NE visible
15 Apr - 11:19:13 10° NNW 11:22:55 26° NNE 11:26:43 10° E visible
15 Apr - 13:01:27 10° NW 13:05:52 75° SW 13:10:31 10° SSE visible
15 Apr - 14:45:50 10° W 14:47:41 12° WSW 14:49:36 10° SW visible
16 Apr - 03:43:06 10° SSE 03:46:14 19° ESE 03:49:17 10° ENE daylight
16 Apr - 05:23:50 10° SW 05:28:18 72° NW 05:32:38 10° NE daylight
16 Apr - 07:08:18 10° WNW 07:11:33 20° NNW 07:14:47 10° NNE daylight
16 Apr - 08:53:51 10° NNW 08:55:45 13° N 08:57:40 10° NNE visible
16 Apr - 10:36:44 10° NNW 10:39:58 20° NNE 10:43:17 10° ENE visible
16 Apr - 12:18:51 10° NW 12:23:14 70° NE 12:27:52 10° SE visible
16 Apr - 14:02:03 10° WNW 14:05:23 21° WSW 14:08:51 10° SSW visible
17 Apr - 03:02:46 10° ESE 03:03:56 11° ESE 03:05:06 10° E daylight
17 Apr - 04:41:14 10° SSW 04:45:41 71° SE 04:50:00 10° NE daylight
17 Apr - 06:24:54 10° W 06:28:37 26° NNW 06:32:17 10° NNE daylight
17 Apr - 08:10:34 10° NW 08:12:38 13° N 08:14:41 10° NNE visible
17 Apr - 09:54:12 10° NNW 09:56:57 16° NNE 09:59:45 10° ENE visible
17 Apr - 11:36:18 10° NNW 11:40:32 45° NE 11:44:59 10° ESE visible
17 Apr - 13:18:58 10° NW 13:22:58 33° WSW 13:27:12 10° S visible
18 Apr - 03:58:56 10° S 04:03:10 42° ESE 04:07:16 10° NE daylight
18 Apr - 05:41:40 10° WSW 05:45:46 36° NW 05:49:47 10° NNE daylight
18 Apr - 07:27:05 10° NW 07:29:32 15° NNW 07:31:58 10° NNE daylight
18 Apr - 09:11:34 10° NNW 09:13:52 14° NNE 09:16:12 10° NE visible
18 Apr - 10:53:47 10° NNW 10:57:44 31° NE 11:01:50 10° E visible
18 Apr - 12:36:10 10° NW 12:40:29 55° WSW 12:45:05 10° SSE visible
19 Apr - 03:17:03 10° S 03:20:44 26° ESE 03:24:20 10° ENE daylight
19 Apr - 04:58:39 10° WSW 05:03:00 54° NW 05:07:16 10° NNE daylight
19 Apr - 06:43:32 10° WNW 06:46:28 17° NNW 06:49:23 10° NNE daylight
19 Apr - 08:28:47 10° NNW 08:30:45 13° N 08:32:46 10° NNE visible
19 Apr - 10:11:18 10° NNW 10:14:51 23° NNE 10:18:31 10° E visible
19 Apr - 11:53:28 10° NW 11:57:55 88° SW 12:02:38 10° SE visible
19 Apr - 13:37:16 10° WNW 13:39:51 15° WSW 13:42:32 10° SW visible
20 Apr - 02:35:45 10° SSE 02:38:23 16° ESE 02:40:58 10° ENE daylight
20 Apr - 04:15:52 10° SW 04:20:20 85° NW 04:24:41 10° NE daylight
20 Apr - 06:00:04 10° W 06:03:28 22° NNW 06:06:52 10° NNE daylight
20 Apr - 07:45:41 10° NNW 07:47:37 13° N 07:49:34 10° NNE daylight
20 Apr - 09:28:48 10° NNW 09:31:53 18° NNE 09:35:03 10° ENE visible
20 Apr - 11:10:54 10° NW 11:15:16 60° NE 11:19:53 10° SE visible
20 Apr - 12:53:51 10° WNW 12:57:31 25° WSW 13:01:21 10° SSW visible
